[[{"header":{"parameterUnit":"m.s-1","parameterCategory":1,"la1":30.2991,"la2":30.254,"lo1":-89.0895,"lo2":-89.0444,"dy":0.0017,"dx":0.0017,"nx":28,"ny":28,"refTime":"2025-11-05T03:00:00:Z","depth":0,"parameterNumber":2,"parameterNumberName":"U-component_of_WINDS"},"data":[0,0,0,0,0,0,0,0,0,0,0,0,0,0,0,0,0,0,0,0,0,0,0,0,0,0,0,0,0,0,0,0,0,0,0,0,0,0,0,0,0,0,0,0,0,0,0,0,0,0,0,0,0,0,0,0,0,0,-1.8692,-1.8692,0,-1.8755,-1.8756,-1.8756,-1.8685,-1.8682,-1.8679,-1.8677,-1.8745,-1.875,-1.8754,0,0,0,0,0,0,0,0,0,0,0,0,0,-1.8511,-1.8514,-1.8691,-1.8692,-1.8693,-1.8755,-1.8756,-1.8757,-1.8685,-1.8682,-1.8679,-1.8676,-1.8744,-1.8749,-1.8754,0,0,0,0,0,0,0,0,0,0,0,0,0,-1.8583,-1.8516,-1.8691,-1.8665,-1.8663,-1.8755,-1.8756,-1.8757,-1.8686,-1.8682,-1.8678,-1.8674,-1.8742,-1.8749,-1.8755,-1.8877,0,0,-1.8775,-1.8778,0,0,0,0,0,0,0,0,-1.8579,-1.859,-1.8668,-1.8667,-1.8665,-1.8708,-1.8717,-1.8797,-1.8687,-1.8677,-1.8677,-1.8672,-1.8736,-1.8743,-1.8764,-1.888,-1.8883,-1.8776,-1.8779,-1.8782,-1.8784,0,0,0,0,0,0,0,-1.8574,-1.8587,-1.8717,-1.8669,-1.8667,-1.8651,-1.8656,-1.8732,-1.8729,-1.8678,-1.8673,-1.8681,-1.8735,-1.8758,-1.8765,-1.8884,-1.8775,-1.8781,-1.8785,-1.8788,-1.9104,-1.9108,0,0,0,0,0,0,-1.8572,-1.8583,-1.8715,-1.8719,-1.8611,-1.8657,-1.8664,-1.8698,-1.8728,-1.8729,-1.8685,-1.8678,-1.8749,-1.8758,-1.8767,-1.8913,-1.8782,-1.8788,-1.8792,-1.91,-1.9105,-1.911,0,0,0,0,0,0,-1.8568,-1.8584,-1.8712,-1.865,-1.8664,-1.8664,-1.8704,-1.8702,-1.8725,-1.8733,-1.8732,-1.8709,-1.8746,-1.8758,-1.885,-1.8914,-1.8791,-1.8797,-1.9094,-1.9101,-1.9107,-1.9205,0,0,0,0,0,0,-1.8563,-1.8583,-1.8629,-1.8651,-1.8668,-1.8794,-1.8708,-1.8706,-1.8736,-1.8727,-1.8756,-1.8756,-1.8744,-1.8841,-1.8857,-1.8921,-1.8802,-1.9089,-1.9097,-1.9105,-1.9196,-1.9214,-1.923,0,0,0,0,0,-1.8557,-1.8655,-1.8632,-1.8648,-1.8725,-1.8797,-1.8807,-1.879,-1.8741,-1.8788,-1.8793,-1.8755,-1.8904,-1.8851,-1.8868,-1.8936,-1.9084,-1.9095,-1.9105,-1.9189,-1.9211,-1.9229,0,0,0,0,0,0,-1.8642,-1.8657,-1.8632,-1.874,-1.8768,-1.8785,-1.8843,-1.8814,-1.8857,-1.8847,-1.8824,-1.8831,-1.8929,-1.8941,-1.8881,-1.9055,-1.8987,-1.9001,-1.9045,-1.9066,-1.9082,-1.9078,-1.8808,0,0,0,0,0,-1.8673,-1.8729,-1.874,-1.8834,-1.8849,-1.8844,-1.8874,-1.8858,-1.8887,-1.8899,-1.8911,-1.8941,-1.8994,-1.903,-1.908,-1.9197,-1.9203,-1.9251,-1.9268,-1.9282,-1.9295,-1.9359,-1.9382,-1.9143,-1.9143,-1.9143,0,0,-1.8738,-1.8753,-1.8791,-1.8851,-1.8871,-1.8931,-1.8854,-1.8921,-1.8965,-1.8909,-1.8997,-1.9007,-1.9039,-1.9144,-1.9191,-1.9157,-1.9362,-1.9295,-1.9306,-1.9312,-1.9372,-1.9395,-1.9415,-1.915,-1.9149,-1.9147,0,0,-1.8888,-1.8904,-1.8985,-1.9006,-1.9036,-1.9032,-1.9051,-1.9073,-1.9077,-1.9165,-1.9124,-1.9176,-1.9269,-1.9294,-1.9318,-1.9476,-1.9444,-1.9493,-1.9582,-1.9645,-1.9663,-1.968,-1.9738,-1.9759,-1.9505,-1.9506,-1.9506,0,-1.8966,-1.9054,-1.903,-1.91,-1.9128,-1.9078,-1.916,-1.9182,-1.9228,-1.9249,-1.9209,-1.9324,-1.9342,-1.9453,-1.9491,-1.9512,-1.9535,-1.9491,-1.9662,-1.9679,-1.9694,-1.9749,-1.9771,-1.9512,-1.9511,-1.951,-1.951,0,-1.9148,-1.921,-1.9271,-1.9315,-1.935,-1.9426,-1.9415,-1.9453,-1.9433,-1.9434,-1.9524,-1.9543,-1.9596,-1.962,-1.9602,-1.9729,-1.9707,-1.9665,-1.9596,-1.9723,-1.9775,-1.9795,-1.952,-1.9518,-1.9516,-1.9515,0,0,-1.9356,-1.9385,-1.9408,-1.9428,-1.9457,-1.9505,-1.9578,-1.9628,-1.9663,-1.9695,-1.9757,-1.9836,-1.9797,-1.9825,-1.9809,-1.9864,-1.999,-1.9815,-1.9815,-1.9849,-2.0132,-2.0166,-2.019,-1.9967,-1.9971,-1.9974,-2.013,0,-1.9508,-1.9634,-1.9614,-1.9737,-1.9794,-1.9747,-1.981,-1.9836,-1.9838,-1.9887,-1.9889,-1.9946,-1.9889,-1.9906,-1.9958,-1.9963,-2.0047,-1.9951,-2.0026,-2.0029,-2.0022,-2.0217,-2.0252,-2.0399,-2.015,-2.0154,-2.0156,0,-1.9702,-1.9741,-1.9869,-1.9889,-1.9912,-1.997,-2.0015,-2.0062,-2.009,-2.0088,-2.0119,-2.0092,-2.0167,-2.0094,-2.0197,-2.0133,-2.0162,-2.0169,-2.0174,-2.0183,-2.0102,-2.0233,-2.0445,-2.0469,-2.0187,-2.0185,-2.0182,0,-1.9843,-1.9927,-2.0015,-2.0033,-2.0058,-2.01,-2.0113,-2.0136,-2.0168,-2.0207,-2.0228,-2.0276,-2.0303,-2.0341,-2.0329,-2.0276,-2.0435,-2.0361,-2.0436,-2.0437,-2.0474,-2.0473,-2.0697,-2.0489,-2.0489,-2.0488,-2.0488,0,-2.0016,-2.0097,-2.0079,-2.0133,-2.0222,-2.0199,-2.0288,-2.0295,-2.0316,-2.0372,-2.0333,-2.0386,-2.0365,-2.0417,-2.0408,-2.0496,-2.0508,-2.0509,-2.0506,-2.0514,-2.0514,-2.0535,-2.0525,-2.0494,-2.0493,-2.0492,-2.0491,0,-2.019,-2.0181,-2.0274,-2.0289,-2.0295,-2.036,-2.0374,-2.0426,-2.0423,-2.0494,-2.051,-2.0507,-2.0566,-2.0557,-2.0623,-2.0617,-2.0727,-2.071,-2.0717,-2.0714,-2.0792,-2.0785,-2.1039,-2.1072,-2.084,-2.0843,-2.0844,0,-2.0303,-2.0363,-2.0385,-2.0419,-2.0435,-2.049,-2.0522,-2.0501,-2.0536,-2.0572,-2.0619,-2.0674,-2.0718,-2.0815,-2.082,-2.087,-2.0856,-2.0941,-2.0864,-2.087,-2.086,-2.0858,-2.0865,-2.0958,-2.096,-2.0963,-2.0964,0,-2.0504,-2.0496,-2.0543,-2.0588,-2.0627,-2.0662,-2.0694,-2.0724,-2.0705,-2.0747,-2.0806,-2.084,-2.0907,-2.0963,-2.101,-2.1024,-2.0993,-2.0988,-2.1009,-2.1019,-2.1022,-2.1024,-2.0762,-2.0983,-2.0981,-2.098,-2.0979,-2.0978,-2.0652,-2.0704,-2.0728,-2.0782,-2.0802,-2.0832,-2.0882,-2.0885,-2.0934,-2.0986,-2.097,-2.1039,-2.1065,-2.1124,-2.1143,-2.1197,-2.1166,-2.1195,-2.1203,-2.1212,-2.1222,-2.1011,-2.1205,-2.1205,-2.1204,-2.1204,-2.1203,0,-2.0853,-2.0866,-2.0915,-2.096,-2.1002,-2.0966,-2.0998,-2.1037,-2.1097,-2.1123,-2.1166,-2.1235,-2.1289,-2.1297,-2.1349,-2.1391,-2.1377,-2.1405,-2.1403,-2.1407,-2.1246,-2.1224,-2.1415,-2.1415,-2.1415,-2.1415,-2.1415,-2.1415,-2.0963,-2.105,-2.1045,-2.1142,-2.1153,-2.1219,-2.1241,-2.1269,-2.129,-2.1368,-2.1412,-2.1417,-2.1436,-2.1489,-2.1537,-2.1538,-2.156,-2.1594,-2.159,-2.144,-2.1419,-2.1399,-2.1378,-2.1598,-2.1599,-2.1748,-2.1749,-2.175]},{"header":{"parameterUnit":"m.s-1","parameterCategory":1,"la1":30.2991,"la2":30.254,"lo1":-89.0895,"lo2":-89.0444,"dy":0.0017,"dx":0.0017,"nx":28,"ny":28,"refTime":"2025-11-05T03:00:00:Z","depth":0,"parameterNumber":3,"parameterNumberName":"V-component_of_WINDS"},"data":[0,0,0,0,0,0,0,0,0,0,0,0,0,0,0,0,0,0,0,0,0,0,0,0,0,0,0,0,0,0,0,0,0,0,0,0,0,0,0,0,0,0,0,0,0,0,0,0,0,0,0,0,0,0,0,0,0,0,-3.1457,-3.1457,0,-3.1481,-3.1482,-3.1482,-3.1429,-3.1427,-3.1426,-3.1424,-3.1447,-3.1449,-3.1451,0,0,0,0,0,0,0,0,0,0,0,0,0,-3.1361,-3.1363,-3.1457,-3.1457,-3.1457,-3.1481,-3.1482,-3.1482,-3.1429,-3.1427,-3.1425,-3.1423,-3.1446,-3.1448,-3.1451,0,0,0,0,0,0,0,0,0,0,0,0,0,-3.1396,-3.1364,-3.1457,-3.1434,-3.1432,-3.1481,-3.1482,-3.1482,-3.143,-3.1427,-3.1425,-3.1422,-3.1445,-3.1448,-3.1451,-3.1523,0,0,-3.1461,-3.1463,0,0,0,0,0,0,0,0,-3.1394,-3.1399,-3.1437,-3.1436,-3.1434,-3.145,-3.1456,-3.1495,-3.143,-3.1431,-3.1424,-3.1421,-3.1449,-3.1452,-3.1462,-3.1524,-3.1525,-3.1462,-3.1464,-3.1465,-3.1466,0,0,0,0,0,0,0,-3.1392,-3.1398,-3.1466,-3.1438,-3.1436,-3.1422,-3.1424,-3.1463,-3.1454,-3.143,-3.1427,-3.143,-3.1448,-3.1459,-3.1462,-3.1525,-3.1462,-3.1464,-3.1466,-3.1468,-3.1645,-3.1647,0,0,0,0,0,0,-3.1392,-3.1396,-3.1466,-3.1467,-3.1407,-3.1425,-3.1428,-3.1447,-3.1453,-3.1452,-3.1433,-3.1428,-3.1455,-3.1459,-3.1463,-3.1546,-3.1465,-3.1468,-3.147,-3.1642,-3.1645,-3.1648,0,0,0,0,0,0,-3.1391,-3.1399,-3.1465,-3.1431,-3.1438,-3.143,-3.1452,-3.1449,-3.146,-3.1455,-3.1453,-3.1446,-3.1453,-3.1458,-3.1508,-3.1546,-3.147,-3.1473,-3.1639,-3.1643,-3.1647,-3.1713,0,0,0,0,0,0,-3.1388,-3.1399,-3.1427,-3.1432,-3.144,-3.151,-3.1454,-3.1451,-3.1466,-3.146,-3.1467,-3.1466,-3.1451,-3.1503,-3.1511,-3.1549,-3.1475,-3.1635,-3.1641,-3.1645,-3.1708,-3.1719,-3.1729,0,0,0,0,0,-3.1385,-3.1444,-3.1428,-3.1437,-3.1475,-3.1513,-3.1517,-3.15,-3.1469,-3.1497,-3.1493,-3.1465,-3.1541,-3.1509,-3.1517,-3.1557,-3.1633,-3.1639,-3.1645,-3.1703,-3.1717,-3.1729,0,0,0,0,0,0,-3.1443,-3.1444,-3.1427,-3.149,-3.1502,-3.1504,-3.1538,-3.1516,-3.1536,-3.153,-3.1507,-3.1509,-3.1563,-3.1565,-3.1529,-3.1625,-3.1581,-3.1589,-3.1622,-3.1636,-3.1646,-3.1644,-3.1478,0,0,0,0,0,-3.1463,-3.1495,-3.1494,-3.1549,-3.1556,-3.1546,-3.1562,-3.1548,-3.1559,-3.1564,-3.1564,-3.1575,-3.1601,-3.1618,-3.1642,-3.1708,-3.1708,-3.1739,-3.1749,-3.1758,-3.1765,-3.1799,-3.1813,-3.1668,-3.1668,-3.1668,0,0,-3.1504,-3.1509,-3.1531,-3.1561,-3.1568,-3.1601,-3.1551,-3.1587,-3.161,-3.1569,-3.1616,-3.1616,-3.1627,-3.1685,-3.171,-3.1688,-3.1805,-3.1766,-3.1773,-3.1775,-3.1807,-3.1821,-3.1833,-3.1673,-3.1672,-3.1671,0,0,-3.1597,-3.1604,-3.1651,-3.166,-3.1672,-3.1665,-3.1676,-3.1682,-3.1681,-3.1728,-3.1697,-3.1724,-3.1769,-3.1778,-3.1788,-3.1884,-3.1858,-3.1892,-3.1948,-3.1981,-3.1992,-3.2002,-3.2035,-3.2048,-3.1899,-3.1899,-3.1899,0,-3.1647,-3.1695,-3.1677,-3.1716,-3.173,-3.1694,-3.174,-3.1749,-3.1769,-3.1778,-3.1753,-3.181,-3.1814,-3.1873,-3.1896,-3.1906,-3.1917,-3.1891,-3.1992,-3.2002,-3.2011,-3.2042,-3.2055,-3.1903,-3.1903,-3.1902,-3.1902,0,-3.1756,-3.179,-3.1826,-3.1846,-3.1864,-3.1906,-3.1893,-3.1913,-3.1898,-3.1893,-3.194,-3.1945,-3.1969,-3.1982,-3.1967,-3.2038,-3.2024,-3.1996,-3.1951,-3.2029,-3.2058,-3.207,-3.1909,-3.1907,-3.1906,-3.1905,0,0,-3.1885,-3.1895,-3.1908,-3.1917,-3.1928,-3.1953,-3.1993,-3.2017,-3.2034,-3.2048,-3.2081,-3.212,-3.2094,-3.2106,-3.2091,-3.2121,-3.2195,-3.2089,-3.2089,-3.2108,-3.2273,-3.2294,-3.2308,-3.2179,-3.2181,-3.2183,-3.2272,0,-3.1976,-3.2047,-3.2031,-3.21,-3.213,-3.2097,-3.2131,-3.2141,-3.2138,-3.2162,-3.2157,-3.2186,-3.215,-3.2156,-3.2184,-3.218,-3.2228,-3.2174,-3.2208,-3.2209,-3.2206,-3.2324,-3.2346,-3.243,-3.2284,-3.2286,-3.2287,0,-3.2092,-3.2111,-3.2183,-3.2189,-3.2201,-3.2232,-3.2253,-3.2277,-3.2287,-3.2282,-3.2295,-3.2275,-3.2313,-3.2269,-3.2321,-3.2284,-3.2297,-3.2297,-3.23,-3.2302,-3.2252,-3.2328,-3.2457,-3.2469,-3.2305,-3.2303,-3.2302,0,-3.2179,-3.2222,-3.2271,-3.2279,-3.2287,-3.231,-3.2314,-3.2321,-3.2336,-3.2354,-3.2363,-3.2385,-3.2396,-3.2413,-3.2398,-3.2367,-3.2453,-3.2407,-3.2449,-3.2449,-3.2468,-3.2467,-3.26,-3.2478,-3.2477,-3.2477,-3.2477,0,-3.2281,-3.2327,-3.231,-3.234,-3.2389,-3.237,-3.2419,-3.2419,-3.2426,-3.2454,-3.2426,-3.2453,-3.2432,-3.2457,-3.2446,-3.2491,-3.2496,-3.2493,-3.2489,-3.2495,-3.2496,-3.2503,-3.2496,-3.248,-3.248,-3.2479,-3.2479,0,-3.2386,-3.2377,-3.2427,-3.2431,-3.2432,-3.2468,-3.247,-3.2497,-3.2492,-3.2528,-3.2535,-3.2526,-3.2554,-3.2541,-3.257,-3.2563,-3.262,-3.2609,-3.2617,-3.2614,-3.2656,-3.2652,-3.2798,-3.2816,-3.2683,-3.2684,-3.2685,0,-3.2452,-3.2486,-3.2493,-3.2511,-3.2517,-3.2545,-3.256,-3.2543,-3.256,-3.2574,-3.2599,-3.2624,-3.2644,-3.269,-3.2685,-3.2707,-3.2696,-3.2745,-3.2699,-3.2704,-3.2696,-3.2694,-3.2697,-3.2755,-3.2756,-3.2757,-3.2758,0,-3.257,-3.2564,-3.2588,-3.261,-3.2629,-3.2646,-3.266,-3.2675,-3.2658,-3.2678,-3.2707,-3.2722,-3.2752,-3.2777,-3.2797,-3.2799,-3.2776,-3.2773,-3.2784,-3.279,-3.2793,-3.2791,-3.2642,-3.277,-3.2769,-3.2768,-3.2767,-3.2767,-3.2657,-3.2686,-3.2695,-3.2722,-3.2731,-3.2744,-3.277,-3.2767,-3.2791,-3.2814,-3.2802,-3.2835,-3.2844,-3.2867,-3.2873,-3.2898,-3.2878,-3.2894,-3.2898,-3.2902,-3.2907,-3.279,-3.2901,-3.2901,-3.2901,-3.29,-3.29,0,-3.2773,-3.2778,-3.2803,-3.2823,-3.2844,-3.2821,-3.2835,-3.2854,-3.2884,-3.2894,-3.2914,-3.2946,-3.2971,-3.2968,-3.299,-3.301,-3.3,-3.3017,-3.3015,-3.3016,-3.2924,-3.2912,-3.3025,-3.3025,-3.3025,-3.3025,-3.3025,-3.3025,-3.2836,-3.2883,-3.2877,-3.2927,-3.2931,-3.2964,-3.2973,-3.2985,-3.2993,-3.3031,-3.3051,-3.305,-3.3054,-3.3077,-3.3098,-3.3096,-3.3105,-3.3126,-3.312,-3.3035,-3.3022,-3.301,-3.2999,-3.3128,-3.3128,-3.321,-3.321,-3.3211]}]]